Location: Ridgway Nature & Science Center
(38.1460°N, 107.7553°W)
Time: 23:49:08
(UTC-06:00)

Tiangong - Visible Passes

Search period start: 25 October 2021 00:00
Search period end: 04 November 2021 00:00
Orbit: 381 x 390 km, 41.5° (Epoch: 25 October)

Date Brightness Start Highest point End Pass type
(mag) Time Alt. Az. Time Alt. Az. Time Alt. Az.
25 Oct 1.6 19:03:49 10° WNW 19:06:54 46° N 19:09:11 16° ENE visible
25 Oct 4.2 20:40:42 10° WNW 20:41:25 16° WNW 20:41:25 16° WNW visible
26 Oct 1.0 19:41:11 10° WNW 19:44:22 79° NNE 19:44:49 62° E visible
27 Oct 1.3 18:41:39 10° WNW 18:44:48 56° NNE 18:47:56 10° E visible
27 Oct 3.2 20:18:37 10° W 20:20:30 27° WSW 20:20:30 27° WSW visible
28 Oct 1.3 19:18:56 10° WNW 19:22:05 65° SSW 19:24:01 21° SE visible
29 Oct 3.2 19:56:36 10° W 19:59:06 21° SSW 19:59:52 19° S visible
30 Oct 2.5 18:56:36 10° W 18:59:35 37° SSW 19:02:32 10° SE visible
31 Oct 4.1 19:35:08 10° WSW 19:36:22 12° SW 19:37:35 10° SSW visible
01 Nov 3.7 18:34:22 10° W 18:36:50 21° SSW 18:39:18 10° SSE visible
